Location: Rometta
(44.2000°N, 10.0500°E)
Time: 23:00:06
(UTC+00:00)

Cosmos 2344 - Pass Details

Date: 20 January 2021
Orbit: 1243 x 2999 km, 63.3° (Epoch: 04 March)

Event Time Altitude Azimuth Distance (km) Brightness Sun altitude
Rises 18:43:14 0° 322° (NW) 4,545 7.0 -26.5°
Reaches altitude 10° 18:45:52 10° 325° (NW) 3,703 6.4 -27.0°
Maximum altitude 18:55:10 69° 49° (NE) 1,992 4.3 -28.7°
Enters shadow 18:59:34 44° 116° (ESE) 2,663 4.7 -29.5°
